Dewpoint
48 51 57 61 60 61 62 62 63 64 64 64 65 65 65 64 64 64 64 62 62 61
48 52 59 62 62 62 63 63 63 64 63 64 64 64 64 64 63 63 63 63 62 61
47 52 61 62 62 62 64 63 63 64 63 63 63 62 63 63 62 62 62 62 62 60
50 61 61 62 63 63 63 63 63 62 62 62 62 62 62 62 61 61 61 61 61 59
48 54 60 61 62 63 62 62 61 61 61 61 61 61 61 61 60 60 60 60 59 59
43 45 49 59 60 61 60 60 60 60 60 60 60 60 60 59 59 59 59 59 59 58
39 41 43 46 52 59 59 59 59 59 59 59 59 59 58 57 57 57 57 57 56 53
37 37 37 39 40 43 49 56 58 57 57 54 55 53 57 57 57 55 52 50 46 45
35 35 35 35 36 36 37 39 41 42 43 42 40 39 40 53 55 50 47 44 43 41
32 33 34 33 32 33 33 35 35 35 36 36 37 37 38 39 42 41 40 40 40 39
30 30 32 32 31 31 30 32 32 32 33 33 34 35 35 35 34 34 34 35 35 35
30 29 29 29 29 30 29 28 28 30 31 32 32 34 34 32 31 31 30 31 32 32
31 30 30 30 29 29 29 27 27 27 28 30 30 33 32 31 30 29 28 29 30 30
32 32 32 32 32 31 30 29 27 26 26 27 28 29 30 30 29 28 27 26 27 28
Lifted_Index
0 -0 -3 -5 -6 -6 -6 -5 -5 -6 -6 -6 -6 -5 -5 -5 -4 -4 -3 -3 -2 -2
-1 -2 -4 -5 -6 -6 -6 -6 -5 -5 -6 -6 -5 -5 -5 -4 -4 -3 -3 -3 -2 -1
-2 -3 -5 -6 -7 -7 -7 -6 -5 -5 -5 -5 -5 -4 -4 -3 -3 -2 -2 -2 -2 -1
-3 -4 -5 -6 -7 -7 -7 -6 -5 -5 -5 -5 -4 -4 -3 -2 -2 -2 -2 -2 -2 -1
-2 -3 -4 -5 -6 -6 -6 -6 -5 -5 -5 -4 -4 -3 -2 -2 -2 -2 -2 -1 -1 -1
-1 -1 -2 -3 -4 -4 -5 -5 -5 -4 -4 -4 -3 -2 -2 -1 -1 -1 -1 -1 -1 -0
1 0 -0 -1 -2 -2 -3 -3 -3 -3 -3 -3 -2 -1 -1 -0 -0 -0 0 0 0 0
1 1 1 1 -0 -1 -1 -1 -1 -1 -2 -1 -1 -0 0 0 1 1 1 1 1 1
3 2 2 1 0 -0 -0 -0 -0 -0 -0 -0 0 1 1 1 1 2 2 2 1 1
5 4 3 3 2 2 2 2 1 1 1 1 2 2 2 2 2 2 2 2 2 2
7 6 6 6 5 5 5 5 4 3 3 3 3 3 3 3 3 3 3 2 2 2
9 9 9 8 8 9 8 7 6 5 5 4 4 4 4 3 3 3 3 2 2 2
11 11 11 11 11 11 10 9 9 8 8 8 7 6 6 5 5 4 3 3 3 4
12 12 12 12 12 12 11 11 11 10 10 10 10 9 9 8 7 5 4 4 5 5